Location: Kaarina
(60.4167°N, 22.4167°E)
Time: 16:03:35
(UTC+03:00)

DMSP B5D2-2 - Pass Details

Date: 24 August 2019
Orbit: 791 x 805 km, 98.4° (Epoch: 22 September)

Event Time Altitude Azimuth Distance (km) Brightness Sun altitude
Rises 22:35:05 0° 17° (NNE) 3,316 7.7 -10.4°
Reaches altitude 10° 22:37:25 10° 18° (NNE) 2,384 6.9 -10.6°
Maximum altitude 22:42:43 85° 107° (ESE) 812 4.1 -11.0°
Drops below altitude 10° 22:47:59 10° 197° (SSW) 2,378 6.2 -11.5°
Sets 22:50:19 0° 198° (SSW) 3,307 7.0 -11.7°
